IW9GDC-13 Weather Reports


Display with metric or nautical units.
time (UTC)temp
F
wind
direction
speed
MPH
gust
MPH
rain 1hr
in
rain 24hr
in
rain mn
in
humidity
%
barometer
mb
20260903033516 81 0 6.0 14.0 0.00 0.00 0.00 69 1016.5
20260903033016 81 23 5.0 12.0 0.00 0.00 0.00 69 1016.5
20260903032516 81 23 2.0 8.0 0.00 0.00 0.00 69 1016.5
20260903032016 81 315 4.0 10.0 0.00 0.00 0.00 69 1016.5
20260903031516 81 0 3.0 9.0 0.00 0.00 0.00 70 1016.4
20260903031016 81 0 4.0 10.0 0.00 0.00 0.00 70 1016.5
20260903030516 81 0 3.0 9.0 0.00 0.00 0.00 71 1016.6
20260903030016 81 293 5.0 13.0 0.00 0.00 0.00 70 1016.6
20260903025536 81 293 4.0 10.0 0.00 0.00 0.00 70 1016.7
20260903025059 81 293 5.0 10.0 0.00 0.00 0.00 70 1016.8
20260903024536 81 315 5.0 12.0 0.00 0.00 0.00 70 1016.8
20260903024016 81 338 3.0 5.0 0.00 0.00 0.00 71 1016.8
20260903023516 81 315 3.0 10.0 0.00 0.00 0.00 71 1016.9
20260903023016 81 338 4.0 8.0 0.00 0.00 0.00 71 1016.9
20260903022518 81 315 3.0 6.0 0.00 0.00 0.00 71 1016.9
20260903022017 81 315 2.0 4.0 0.00 0.00 0.00 71 1017.0
20260903021516 81 338 5.0 11.0 0.00 0.00 0.00 70 1017.0
20260903021016 81 338 4.0 8.0 0.00 0.00 0.00 70 1016.9
20260903020516 81 315 4.0 8.0 0.00 0.00 0.00 70 1017.0
20260903020015 81 0 2.0 5.0 0.00 0.00 0.00 71 1017.0
20260903015516 81 0 4.0 8.0 0.00 0.00 0.00 70 1017.2
20260903015036 81 315 2.0 5.0 0.00 0.00 0.00 70 1017.1
20260903014515 81 315 3.0 8.0 0.00 0.00 0.00 69 1017.1
20260903014038 81 0 3.0 5.0 0.00 0.00 0.00 69 1017.1
20260903013516 81 45 2.0 7.0 0.00 0.00 0.00 68 1017.2
20260903013036 81 315 3.0 11.0 0.00 0.00 0.00 67 1017.0
20260903012515 81 23 4.0 8.0 0.00 0.00 0.00 68 1017.0
20260903012015 81 23 3.0 9.0 0.00 0.00 0.00 69 1017.1
20260903011516 81 293 2.0 6.0 0.00 0.00 0.00 68 1017.1
20260903011017 81 23 1.0 3.0 0.00 0.00 0.00 69 1017.1
20260903010536 82 0 3.0 11.0 0.00 0.00 0.00 68 1017.1
20260903010015 82 0 5.0 12.0 0.00 0.00 0.00 68 1017.1
20260903005516 82 23 5.0 11.0 0.00 0.00 0.00 67 1017.1
20260903005016 82 225 6.0 20.0 0.00 0.00 0.00 67 1017.2
20260903004516 82 0 6.0 10.0 0.00 0.00 0.00 66 1017.2
20260903004016 82 338 5.0 12.0 0.00 0.00 0.00 66 1017.4
20260903003536 82 338 6.0 15.0 0.00 0.00 0.00 65 1017.2
20260903003016 82 338 6.0 13.0 0.00 0.00 0.00 67 1017.3
20260903002515 82 0 6.0 15.0 0.00 0.00 0.00 67 1017.2
20260903002015 82 315 2.0 11.0 0.00 0.00 0.00 64 1017.4
20260903001515 82 23 4.0 11.0 0.00 0.00 0.00 68 1017.4
20260903001016 82 0 3.0 9.0 0.00 0.00 0.00 66 1017.2
20260903000556 82 23 4.0 6.0 0.00 0.00 0.00 65 1017.3
20260903000016 82 135 1.0 3.0 0.00 0.00 0.00 65 1017.3
20260902235515 82 338 1.0 5.0 0.00 0.00 0.00 64 1017.3
20260902235015 82 338 5.0 11.0 0.00 0.00 0.00 65 1017.3
20260902234515 81 315 5.0 13.0 0.00 0.00 0.00 66 1017.3
20260902234035 82 45 4.0 11.0 0.00 0.00 0.00 68 1017.3
20260902233515 82 90 7.0 14.0 0.00 0.00 0.00 69 1017.3
20260902233036 82 68 7.0 11.0 0.00 0.00 0.00 68 1017.2
20260902232517 82 68 5.0 9.0 0.00 0.00 0.00 66 1017.2
20260902232017 82 68 7.0 10.0 0.00 0.00 0.00 66 1017.1
20260902231517 82 90 6.0 10.0 0.00 0.00 0.00 66 1017.2
20260902231017 82 90 5.0 11.0 0.00 0.00 0.00 62 1017.2
20260902230517 82 68 4.0 7.0 0.00 0.00 0.00 63 1017.4
20260902230017 82 45 4.0 9.0 0.00 0.00 0.00 63 1017.4
20260902225517 83 45 3.0 9.0 0.00 0.00 0.00 61 1017.5
20260902225017 83 45 5.0 13.0 0.00 0.00 0.00 53 1017.5
20260902224516 83 315 5.0 9.0 0.00 0.00 0.00 62 1017.6
20260902224017 83 23 4.0 9.0 0.00 0.00 0.00 61 1017.5
20260902223517 83 45 3.0 6.0 0.00 0.00 0.00 62 1017.7
20260902223017 83 135 3.0 7.0 0.00 0.00 0.00 52 1017.6
20260902222517 83 90 2.0 10.0 0.00 0.00 0.00 60 1017.7
20260902222037 83 68 3.0 8.0 0.00 0.00 0.00 63 1017.6
20260902221517 83 90 3.0 5.0 0.00 0.00 0.00 62 1017.7
20260902221017 83 68 2.0 6.0 0.00 0.00 0.00 61 1017.7
20260902220517 83 113 2.0 4.0 0.00 0.00 0.00 60 1017.8
20260902220015 83 135 1.0 3.0 0.00 0.00 0.00 61 1017.8
20260902215537 83 225 2.0 4.0 0.00 0.00 0.00 63 1017.8
20260902215017 83 203 1.0 4.0 0.00 0.00 0.00 61 1017.8
20260902214537 83 338 5.0 12.0 0.00 0.00 0.00 53 1017.7
20260902214017 82 180 4.0 15.0 0.00 0.00 0.00 57 1017.7
20260902213517 82 23 8.0 19.0 0.00 0.00 0.00 67 1017.8
20260902213037 82 0 6.0 13.0 0.00 0.00 0.00 66 1017.8
20260902212517 82 338 7.0 17.0 0.00 0.00 0.00 68 1017.7
20260902212017 82 0 5.0 9.0 0.00 0.00 0.00 68 1017.9
20260902211517 82 338 2.0 5.0 0.00 0.00 0.00 71 1017.8
20260902211017 82 338 3.0 8.0 0.00 0.00 0.00 70 1017.9
20260902210517 82 315 2.0 8.0 0.00 0.00 0.00 71 1017.9
20260902210039 82 315 3.0 8.0 0.00 0.00 0.00 71 1017.9
20260902205517 82 315 3.0 8.0 0.00 0.00 0.00 70 1017.8
20260902205017 82 315 2.0 5.0 0.00 0.00 0.00 70 1017.9
20260902204517 82 338 3.0 6.0 0.00 0.00 0.00 70 1017.9
20260902204016 82 338 3.0 7.0 0.00 0.00 0.00 70 1017.9
20260902203537 82 293 3.0 11.0 0.00 0.00 0.00 69 1017.9
20260902203017 82 293 3.0 10.0 0.00 0.00 0.00 70 1018.0
20260902202517 82 270 2.0 9.0 0.00 0.00 0.00 70 1018.0
20260902202016 82 0 3.0 10.0 0.00 0.00 0.00 70 1018.0
20260902201521 82 315 4.0 8.0 0.00 0.00 0.00 70 1018.1
20260902201056 82 315 3.0 8.0 0.00 0.00 0.00 70 1018.1
20260902200557 82 0 3.0 9.0 0.00 0.00 0.00 70 1018.1
20260902200017 82 0 3.0 9.0 0.00 0.00 0.00 69 1018.2
20260902195517 82 0 3.0 5.0 0.00 0.00 0.00 70 1018.2
20260902195016 82 293 3.0 5.0 0.00 0.00 0.00 70 1018.2
20260902194536 82 270 2.0 4.0 0.00 0.00 0.00 69 1018.3
20260902194016 82 315 2.0 4.0 0.00 0.00 0.00 69 1018.3
20260902193516 82 23 2.0 8.0 0.00 0.00 0.00 69 1018.2
20260902193016 82 293 2.0 6.0 0.00 0.00 0.00 69 1018.2
20260902192516 82 0 4.0 8.0 0.00 0.00 0.00 69 1018.2
20260902192017 82 293 4.0 11.0 0.00 0.00 0.00 69 1018.2
20260902191516 82 315 3.0 9.0 0.00 0.00 0.00 69 1018.2
20260902191016 83 293 3.0 8.0 0.00 0.00 0.00 69 1018.3
20260902190516 83 315 2.0 7.0 0.00 0.00 0.00 68 1018.2
20260902190016 83 338 2.0 5.0 0.00 0.00 0.00 68 1018.3
20260902185537 83 315 3.0 7.0 0.00 0.00 0.00 68 1018.3
20260902185016 83 338 4.0 9.0 0.00 0.00 0.00 69 1018.2
20260902184516 82 338 4.0 8.0 0.00 0.00 0.00 69 1018.2
20260902184016 82 0 2.0 6.0 0.00 0.00 0.00 70 1018.1
20260902183516 83 338 3.0 6.0 0.00 0.00 0.00 70 1018.1
20260902183016 83 315 2.0 5.0 0.00 0.00 0.00 69 1018.0
20260902182516 83 0 2.0 6.0 0.00 0.00 0.00 69 1017.9
20260902182016 83 315 3.0 6.0 0.00 0.00 0.00 69 1017.8
20260902181516 83 338 4.0 9.0 0.00 0.00 0.00 69 1017.7
20260902181018 83 0 4.0 11.0 0.00 0.00 0.00 69 1017.6
20260902180536 83 338 4.0 8.0 0.00 0.00 0.00 69 1017.6
20260902180016 83 338 3.0 8.0 0.00 0.00 0.00 69 1017.5
20260902175536 83 0 5.0 11.0 0.00 0.00 0.00 69 1017.4
20260902175056 83 0 4.0 13.0 0.00 0.00 0.00 69 1017.4
20260902174516 83 338 3.0 6.0 0.00 0.00 0.00 69 1017.3
20260902174016 83 338 5.0 12.0 0.00 0.00 0.00 69 1017.4
20260902173516 83 0 5.0 11.0 0.00 0.00 0.00 68 1017.3
20260902173016 83 293 4.0 9.0 0.00 0.00 0.00 68 1017.3
20260902172517 83 293 5.0 12.0 0.00 0.00 0.00 67 1017.3
20260902172016 84 338 3.0 6.0 0.00 0.00 0.00 67 1017.3
20260902171516 84 338 1.0 4.0 0.00 0.00 0.00 67 1017.3
20260902171016 84 315 1.0 4.0 0.00 0.00 0.00 67 1017.4
20260902170516 84 315 3.0 5.0 0.00 0.00 0.00 66 1017.4
20260902170016 84 293 3.0 8.0 0.00 0.00 0.00 66 1017.4
20260902165516 84 338 3.0 8.0 0.00 0.00 0.00 66 1017.3
20260902165016 85 315 2.0 5.0 0.00 0.00 0.00 66 1017.4
20260902164516 85 338 3.0 8.0 0.00 0.00 0.00 66 1017.3
20260902164036 85 315 3.0 6.0 0.00 0.00 0.00 65 1017.5
20260902163536 85 0 5.0 13.0 0.00 0.00 0.00 65 1017.5
20260902163017 86 293 5.0 10.0 0.00 0.00 0.00 64 1017.6
20260902162516 86 293 2.0 9.0 0.00 0.00 0.00 63 1017.7
20260902162036 86 338 3.0 10.0 0.00 0.00 0.00 62 1017.7
20260902161516 87 270 2.0 6.0 0.00 0.00 0.00 61 1017.7
20260902161016 87 293 3.0 9.0 0.00 0.00 0.00 59 1017.7
20260902160517 88 315 4.0 12.0 0.00 0.00 0.00 58 1017.7
20260902160016 88 315 4.0 12.0 0.00 0.00 0.00 55 1017.5
20260902155516 88 293 3.0 8.0 0.00 0.00 0.00 57 1017.5
20260902155018 88 293 3.0 9.0 0.00 0.00 0.00 57 1017.5
20260902154516 88 293 5.0 11.0 0.00 0.00 0.00 56 1017.5
20260902154016 88 293 7.0 13.0 0.00 0.00 0.00 53 1017.5
20260902153516 88 270 6.0 15.0 0.00 0.00 0.00 55 1017.6
20260902153016 88 338 6.0 12.0 0.00 0.00 0.00 53 1017.7
20260902152516 89 270 7.0 12.0 0.00 0.00 0.00 53 1017.6
20260902152016 89 270 4.0 13.0 0.00 0.00 0.00 55 1017.7
20260902151536 89 293 6.0 12.0 0.00 0.00 0.00 55 1017.6
20260902151036 89 293 6.0 13.0 0.00 0.00 0.00 53 1017.6
20260902150516 89 315 7.0 13.0 0.00 0.00 0.00 53 1017.6
20260902150016 89 270 6.0 11.0 0.00 0.00 0.00 53 1017.7
20260902145515 89 293 5.0 16.0 0.00 0.00 0.00 52 1017.6
20260902145016 90 293 5.0 13.0 0.00 0.00 0.00 51 1017.7
20260902144516 90 270 5.0 10.0 0.00 0.00 0.00 50 1017.7
20260902144015 90 0 3.0 8.0 0.00 0.00 0.00 50 1017.7
20260902143515 90 0 6.0 13.0 0.00 0.00 0.00 49 1017.6
20260902143036 90 23 6.0 13.0 0.00 0.00 0.00 48 1017.7
20260902142516 91 293 4.0 12.0 0.00 0.00 0.00 48 1017.7
20260902142016 91 293 4.0 12.0 0.00 0.00 0.00 47 1017.7
20260902141515 91 293 4.0 11.0 0.00 0.00 0.00 47 1017.8
20260902141015 90 293 6.0 13.0 0.00 0.00 0.00 45 1017.8
20260902140516 90 338 5.0 10.0 0.00 0.00 0.00 46 1017.8
20260902140015 90 293 7.0 13.0 0.00 0.00 0.00 46 1017.8
20260902135516 90 270 6.0 15.0 0.00 0.00 0.00 47 1017.8
20260902135016 90 315 5.0 13.0 0.00 0.00 0.00 47 1017.9
20260902134516 90 270 7.0 14.0 0.00 0.00 0.00 49 1018.0
20260902134015 90 270 7.0 13.0 0.00 0.00 0.00 50 1018.0
20260902133516 90 315 8.0 14.0 0.00 0.00 0.00 49 1018.0
20260902133015 90 270 8.0 16.0 0.00 0.00 0.00 49 1018.1
20260902132516 90 270 7.0 13.0 0.00 0.00 0.00 49 1018.0
20260902132015 91 315 7.0 16.0 0.00 0.00 0.00 48 1018.1
20260902131515 91 270 7.0 11.0 0.00 0.00 0.00 49 1018.1
20260902131015 91 270 5.0 12.0 0.00 0.00 0.00 48 1018.2
20260902130515 91 270 5.0 11.0 0.00 0.00 0.00 49 1018.1
20260902130015 91 338 5.0 11.0 0.00 0.00 0.00 49 1018.1
20260902125535 91 68 5.0 11.0 0.00 0.00 0.00 50 1018.2
20260902125015 91 23 7.0 15.0 0.00 0.00 0.00 51 1018.2
20260902124515 91 293 5.0 10.0 0.00 0.00 0.00 51 1018.2
20260902124015 91 315 7.0 15.0 0.00 0.00 0.00 51 1018.3
20260902123515 91 0 4.0 11.0 0.00 0.00 0.00 50 1018.2
20260902123017 91 293 9.0 15.0 0.00 0.00 0.00 49 1018.3
20260902122537 91 0 5.0 11.0 0.00 0.00 0.00 46 1018.3
20260902122037 92 23 5.0 12.0 0.00 0.00 0.00 49 1018.4
20260902121537 91 0 6.0 16.0 0.00 0.00 0.00 48 1018.4
20260902121037 91 0 5.0 13.0 0.00 0.00 0.00 49 1018.4
20260902120537 91 0 7.0 12.0 0.00 0.00 0.00 49 1018.5
20260902120017 91 23 7.0 15.0 0.00 0.00 0.00 47 1018.5
20260902115517 91 338 6.0 15.0 0.00 0.00 0.00 51 1018.5
20260902115017 90 315 6.0 15.0 0.00 0.00 0.00 52 1018.6
20260902114557 90 23 8.0 14.0 0.00 0.00 0.00 53 1018.6
20260902114017 90 0 7.0 15.0 0.00 0.00 0.00 53 1018.7
20260902113517 90 315 4.0 10.0 0.00 0.00 0.00 55 1018.6
20260902113037 90 0 8.0 15.0 0.00 0.00 0.00 56 1018.5
20260902112517 90 338 8.0 19.0 0.00 0.00 0.00 54 1018.6
20260902112017 90 315 6.0 17.0 0.00 0.00 0.00 56 1018.5
20260902111517 90 315 7.0 15.0 0.00 0.00 0.00 55 1018.6
20260902111017 90 315 8.0 15.0 0.00 0.00 0.00 55 1018.6
20260902110537 90 293 5.0 11.0 0.00 0.00 0.00 56 1018.6
20260902110017 90 0 6.0 15.0 0.00 0.00 0.00 55 1018.7
20260902105517 90 0 6.0 12.0 0.00 0.00 0.00 55 1018.7
20260902105017 90 0 6.0 10.0 0.00 0.00 0.00 55 1018.9
20260902104517 91 248 3.0 8.0 0.00 0.00 0.00 55 1018.9
20260902104017 90 23 3.0 8.0 0.00 0.00 0.00 56 1019.0
20260902103537 90 270 5.0 15.0 0.00 0.00 0.00 56 1018.9
20260902103017 90 293 5.0 12.0 0.00 0.00 0.00 56 1018.9
20260902102517 90 0 4.0 11.0 0.00 0.00 0.00 56 1018.9
20260902102017 90 248 5.0 12.0 0.00 0.00 0.00 56 1018.9
20260902101517 90 293 4.0 8.0 0.00 0.00 0.00 56 1018.9
20260902101037 89 248 5.0 13.0 0.00 0.00 0.00 57 1019.0
20260902100517 89 315 5.0 12.0 0.00 0.00 0.00 57 1019.1
20260902100017 89 293 5.0 11.0 0.00 0.00 0.00 57 1019.1
20260902095537 89 338 6.0 11.0 0.00 0.00 0.00 57 1019.1
20260902095017 90 0 5.0 12.0 0.00 0.00 0.00 57 1019.1
20260902094517 90 0 5.0 13.0 0.00 0.00 0.00 56 1019.2
20260902094017 89 293 4.0 10.0 0.00 0.00 0.00 56 1019.1
20260902093517 89 293 6.0 16.0 0.00 0.00 0.00 57 1019.2
20260902093017 89 315 4.0 13.0 0.00 0.00 0.00 57 1019.1
20260902092517 89 293 4.0 13.0 0.00 0.00 0.00 57 1019.1
20260902092017 88 293 9.0 17.0 0.00 0.00 0.00 57 1019.1
20260902091517 89 315 7.0 14.0 0.00 0.00 0.00 56 1019.2
20260902091017 89 293 6.0 16.0 0.00 0.00 0.00 56 1019.1
20260902090517 89 293 6.0 14.0 0.00 0.00 0.00 56 1019.1
20260902090018 89 293 4.0 11.0 0.00 0.00 0.00 56 1019.0
20260902085517 89 293 5.0 11.0 0.00 0.00 0.00 58 1019.0
20260902085017 89 315 4.0 10.0 0.00 0.00 0.00 58 1018.9
20260902084517 88 338 6.0 12.0 0.00 0.00 0.00 59 1018.9
20260902084016 88 0 6.0 11.0 0.00 0.00 0.00 58 1018.8
20260902083516 88 0 8.0 12.0 0.00 0.00 0.00 58 1018.7
20260902083017 88 23 3.0 11.0 0.00 0.00 0.00 57 1018.8
20260902082537 88 315 5.0 10.0 0.00 0.00 0.00 58 1018.7
20260902082016 88 0 6.0 13.0 0.00 0.00 0.00 58 1018.7
20260902081517 88 315 4.0 9.0 0.00 0.00 0.00 58 1018.8
20260902081016 88 293 3.0 10.0 0.00 0.00 0.00 59 1018.7
20260902080516 87 293 5.0 11.0 0.00 0.00 0.00 59 1018.7
20260902080017 87 315 6.0 13.0 0.00 0.00 0.00 60 1018.7
20260902075536 87 315 8.0 17.0 0.00 0.00 0.00 60 1018.6
20260902075016 87 293 7.0 16.0 0.00 0.00 0.00 59 1018.5
20260902074516 87 315 5.0 12.0 0.00 0.00 0.00 59 1018.5
20260902074019 87 338 6.0 12.0 0.00 0.00 0.00 59 1018.3
20260902073516 87 293 6.0 11.0 0.00 0.00 0.00 59 1018.3
20260902073016 87 293 6.0 12.0 0.00 0.00 0.00 59 1018.3
20260902072517 87 270 4.0 10.0 0.00 0.00 0.00 59 1018.3
20260902072017 87 270 4.0 9.0 0.00 0.00 0.00 58 1018.3
20260902071539 87 248 1.0 3.0 0.00 0.00 0.00 59 1018.2
20260902071016 86 0 4.0 13.0 0.00 0.00 0.00 59 1018.2
20260902070517 86 270 5.0 8.0 0.00 0.00 0.00 59 1018.1
20260902070017 86 270 4.0 8.0 0.00 0.00 0.00 59 1018.2
20260902065516 86 270 4.0 11.0 0.00 0.00 0.00 58 1018.1
20260902065016 87 0 4.0 9.0 0.00 0.00 0.00 58 1018.1
20260902064517 86 225 3.0 9.0 0.00 0.00 0.00 59 1018.1
20260902064016 86 0 3.0 8.0 0.00 0.00 0.00 58 1018.1
20260902063516 86 45 2.0 6.0 0.00 0.00 0.00 59 1018.1
20260902063016 86 0 5.0 10.0 0.00 0.00 0.00 59 1018.0
20260902062516 86 0 6.0 14.0 0.00 0.00 0.00 58 1018.1
20260902062016 86 293 3.0 7.0 0.00 0.00 0.00 58 1018.1
20260902061516 86 338 2.0 6.0 0.00 0.00 0.00 59 1018.1
20260902061016 86 0 4.0 8.0 0.00 0.00 0.00 59 1018.0
20260902060517 85 270 3.0 7.0 0.00 0.00 0.00 60 1018.1
20260902060016 85 293 2.0 4.0 0.00 0.00 0.00 60 1018.0
20260902055517 85 203 2.0 5.0 0.00 0.00 0.00 60 1018.0
20260902055016 85 225 1.0 3.0 0.00 0.00 0.00 60 1018.0
20260902054516 85 203 1.0 4.0 0.00 0.00 0.00 60 1018.0
20260902054038 85 270 1.0 4.0 0.00 0.00 0.00 60 1018.0
20260902053516 85 338 3.0 8.0 0.00 0.00 0.00 59 1018.0
20260902053016 84 315 2.0 6.0 0.00 0.00 0.00 60 1017.9
20260902052636 84 315 2.0 7.0 0.00 0.00 0.00 60 1017.9
20260902052017 84 315 3.0 6.0 0.00 0.00 0.00 60 1017.9
20260902051516 83 0 3.0 7.0 0.00 0.00 0.00 61 1017.9
20260902051016 83 315 2.0 7.0 0.00 0.00 0.00 63 1017.8
20260902050516 83 293 4.0 9.0 0.00 0.00 0.00 63 1017.9
20260902050016 83 270 6.0 15.0 0.00 0.00 0.00 64 1017.8
20260902045516 83 293 5.0 10.0 0.00 0.00 0.00 65 1018.0
20260902045017 83 293 7.0 18.0 0.00 0.00 0.00 65 1017.9
20260902044517 83 270 9.0 16.0 0.00 0.00 0.00 65 1018.0
20260902044016 82 270 6.0 16.0 0.00 0.00 0.00 65 1017.8
20260902043516 82 315 8.0 16.0 0.00 0.00 0.00 66 1017.9
20260902043016 83 315 4.0 11.0 0.00 0.00 0.00 64 1017.9
20260902042516 83 270 8.0 15.0 0.00 0.00 0.00 63 1017.9
20260902042016 82 270 8.0 16.0 0.00 0.00 0.00 64 1017.8
20260902041519 82 293 6.0 13.0 0.00 0.00 0.00 65 1017.8
20260902041018 83 270 7.0 18.0 0.00 0.00 0.00 65 1017.8
20260902040516 83 270 10.0 18.0 0.00 0.00 0.00 65 1017.7
20260902040016 83 270 9.0 17.0 0.00 0.00 0.00 64 1017.7
20260902035516 83 270 9.0 18.0 0.00 0.00 0.00 63 1017.6
20260902035016 83 270 6.0 16.0 0.00 0.00 0.00 63 1017.6
20260902034516 83 270 9.0 24.0 0.00 0.00 0.00 63 1017.6
20260902034016 83 270 8.0 18.0 0.00 0.00 0.00 63 1017.6